[[{"header":{"parameterUnit":"m.s-1","parameterCategory":1,"la1":30.2991,"la2":30.254,"lo1":-89.0895,"lo2":-89.0444,"dy":0.0017,"dx":0.0017,"nx":28,"ny":28,"refTime":"2024-12-20T09:00:00:Z","depth":0,"parameterNumber":2,"parameterNumberName":"U-component_of_WINDS"},"data":[0,0,0,0,0,0,0,0,0,0,0,0,0,0,0,0,0,0,0,0,0,0,0,0,0,0,0,0,0,0,0,0,0,0,0,0,0,0,0,0,0,0,0,0,0,0,0,0,0,0,0,0,0,0,0,0,0,0,1.1208,1.1208,0,1.1185,1.1185,1.1184,1.1169,1.1168,1.1168,1.1168,1.1143,1.1142,1.1142,0,0,0,0,0,0,0,0,0,0,0,0,0,1.1238,1.1238,1.1208,1.1208,1.1207,1.1185,1.1185,1.1184,1.1169,1.1168,1.1168,1.1168,1.1143,1.1142,1.1142,0,0,0,0,0,0,0,0,0,0,0,0,0,1.1221,1.1237,1.1208,1.1197,1.1196,1.1185,1.1184,1.1184,1.1169,1.1168,1.1168,1.1168,1.1143,1.1142,1.1141,1.1139,0,0,1.1139,1.1138,0,0,0,0,0,0,0,0,1.1222,1.122,1.1199,1.1198,1.1196,1.1179,1.1186,1.1169,1.1169,1.1179,1.1168,1.1168,1.1155,1.1153,1.1149,1.1138,1.1137,1.1139,1.1138,1.1138,1.1138,0,0,0,0,0,0,0,1.1223,1.1221,1.1199,1.1199,1.1197,1.1193,1.119,1.1182,1.1168,1.1178,1.1177,1.1174,1.1154,1.115,1.1148,1.1137,1.1139,1.1138,1.1137,1.1137,1.1123,1.1124,0,0,0,0,0,0,1.1226,1.1222,1.12,1.1198,1.1209,1.1193,1.119,1.1185,1.1168,1.1165,1.1174,1.1174,1.1151,1.1149,1.1147,1.1144,1.1138,1.1137,1.1136,1.1123,1.1123,1.1124,0,0,0,0,0,0,1.1227,1.1224,1.12,1.121,1.1206,1.1192,1.1187,1.1185,1.118,1.1165,1.1163,1.1173,1.1151,1.1149,1.1142,1.1143,1.1137,1.1136,1.1123,1.1123,1.1123,1.1137,0,0,0,0,0,0,1.1228,1.1225,1.1224,1.121,1.1206,1.1195,1.1187,1.1184,1.1179,1.1178,1.1163,1.1161,1.1151,1.1143,1.1141,1.1141,1.1135,1.1123,1.1123,1.1123,1.1136,1.1137,1.1139,0,0,0,0,0,1.1229,1.1228,1.1224,1.1221,1.1205,1.1195,1.1193,1.1183,1.1179,1.1178,1.1169,1.1161,1.1143,1.1142,1.114,1.114,1.1123,1.1123,1.1123,1.1136,1.1137,1.1138,0,0,0,0,0,0,1.1242,1.1226,1.1221,1.1216,1.1207,1.1193,1.1191,1.1185,1.1176,1.1175,1.1162,1.1159,1.1153,1.1146,1.1146,1.1138,1.1132,1.1132,1.1142,1.1144,1.1145,1.1146,1.1134,0,0,0,0,0,1.1244,1.1238,1.1225,1.1221,1.1217,1.1205,1.1201,1.1193,1.1184,1.118,1.117,1.1161,1.1153,1.1148,1.114,1.1136,1.1132,1.1135,1.1136,1.1137,1.1136,1.1134,1.1135,1.1125,1.1125,1.1125,0,0,1.1248,1.1239,1.1236,1.1224,1.1216,1.121,1.1202,1.1196,1.1191,1.1179,1.1172,1.1164,1.1153,1.1147,1.1144,1.1141,1.1139,1.1137,1.1138,1.1137,1.1134,1.1135,1.1136,1.1125,1.1125,1.1125,0,0,1.1253,1.1246,1.1242,1.1235,1.1224,1.1216,1.1216,1.1203,1.1198,1.1191,1.1181,1.1176,1.1163,1.1155,1.115,1.1153,1.1146,1.1151,1.1157,1.1154,1.1155,1.1156,1.1157,1.1158,1.1151,1.1151,1.1151,0,1.126,1.1251,1.1241,1.1236,1.1231,1.122,1.1216,1.121,1.1197,1.1193,1.119,1.1174,1.1166,1.1159,1.116,1.1156,1.1154,1.1152,1.1156,1.1157,1.1157,1.1158,1.1158,1.1152,1.1152,1.1152,1.1152,0,1.1259,1.1254,1.1252,1.1241,1.1235,1.1231,1.122,1.1216,1.121,1.1202,1.1195,1.1185,1.1175,1.1173,1.1167,1.1165,1.1164,1.1159,1.1153,1.1159,1.1159,1.116,1.1153,1.1153,1.1152,1.1152,0,0,1.127,1.1254,1.1254,1.1249,1.1237,1.1232,1.1227,1.1218,1.1215,1.1207,1.1202,1.1193,1.1188,1.1182,1.1175,1.1173,1.1176,1.1168,1.1167,1.1169,1.1174,1.1177,1.1178,1.1172,1.1172,1.1172,1.1175,0,1.1273,1.1264,1.1256,1.125,1.1244,1.1235,1.1231,1.1223,1.1216,1.1211,1.1203,1.1196,1.1191,1.1187,1.1185,1.1176,1.1177,1.1176,1.1167,1.1167,1.1169,1.1178,1.1182,1.1185,1.1175,1.1175,1.1175,0,1.1274,1.1268,1.1261,1.1251,1.1248,1.1245,1.1236,1.1231,1.1222,1.1217,1.1211,1.1204,1.1198,1.1194,1.1187,1.1186,1.1182,1.1178,1.1178,1.1175,1.1171,1.1176,1.1185,1.1186,1.1175,1.1175,1.1175,0,1.1283,1.1272,1.1267,1.1263,1.125,1.1248,1.1243,1.1234,1.1229,1.1222,1.1219,1.1211,1.1206,1.12,1.1191,1.1189,1.1184,1.1179,1.118,1.118,1.1178,1.1178,1.1187,1.1177,1.1177,1.1177,1.1177,0,1.1286,1.1283,1.127,1.1267,1.1263,1.1254,1.125,1.1244,1.1236,1.1232,1.1223,1.1219,1.1207,1.1202,1.1195,1.119,1.1188,1.1183,1.1181,1.1184,1.1184,1.118,1.1179,1.1177,1.1177,1.1177,1.1177,0,1.1294,1.1286,1.128,1.1269,1.1266,1.1264,1.1254,1.1251,1.1244,1.1238,1.1236,1.1226,1.1219,1.121,1.12,1.1195,1.119,1.1188,1.1194,1.1192,1.1193,1.1193,1.1199,1.1199,1.119,1.119,1.119,0,1.1296,1.1294,1.1283,1.1279,1.1274,1.1269,1.1265,1.1256,1.1251,1.1242,1.124,1.1232,1.1226,1.1216,1.1207,1.1199,1.1196,1.1198,1.1194,1.1197,1.1195,1.1195,1.1195,1.1199,1.1199,1.1199,1.1199,0,1.1301,1.1298,1.1292,1.1285,1.128,1.1274,1.1268,1.1265,1.1255,1.1251,1.1244,1.1239,1.123,1.1222,1.1214,1.1208,1.1202,1.1201,1.12,1.1202,1.1206,1.1204,1.1195,1.12,1.12,1.12,1.12,1.12,1.1306,1.1304,1.1296,1.129,1.1284,1.1279,1.1275,1.1268,1.1263,1.1255,1.125,1.1243,1.1235,1.1223,1.1218,1.1213,1.121,1.121,1.121,1.1209,1.121,1.1208,1.1211,1.1211,1.1211,1.1211,1.1211,0,1.1311,1.1305,1.13,1.1292,1.1287,1.1283,1.1275,1.1272,1.1266,1.126,1.1254,1.1246,1.124,1.1231,1.1224,1.1221,1.1218,1.122,1.1219,1.1218,1.1213,1.1214,1.1222,1.1222,1.1222,1.1222,1.1222,1.1222,1.1312,1.1307,1.1303,1.1296,1.129,1.1284,1.1281,1.1275,1.127,1.1262,1.1257,1.1252,1.1244,1.1236,1.123,1.1228,1.1225,1.1227,1.1224,1.1219,1.1218,1.1217,1.1218,1.1227,1.1227,1.1229,1.1229,1.1229]},{"header":{"parameterUnit":"m.s-1","parameterCategory":1,"la1":30.2991,"la2":30.254,"lo1":-89.0895,"lo2":-89.0444,"dy":0.0017,"dx":0.0017,"nx":28,"ny":28,"refTime":"2024-12-20T09:00:00:Z","depth":0,"parameterNumber":3,"parameterNumberName":"V-component_of_WINDS"},"data":[0,0,0,0,0,0,0,0,0,0,0,0,0,0,0,0,0,0,0,0,0,0,0,0,0,0,0,0,0,0,0,0,0,0,0,0,0,0,0,0,0,0,0,0,0,0,0,0,0,0,0,0,0,0,0,0,0,0,-3.3603,-3.3604,0,-3.3698,-3.3699,-3.37,-3.3662,-3.366,-3.3658,-3.3656,-3.3751,-3.3756,-3.376,0,0,0,0,0,0,0,0,0,0,0,0,0,-3.3387,-3.3391,-3.3603,-3.3604,-3.3605,-3.3698,-3.3699,-3.3701,-3.3663,-3.366,-3.3657,-3.3655,-3.375,-3.3755,-3.3761,0,0,0,0,0,0,0,0,0,0,0,0,0,-3.3481,-3.3393,-3.3603,-3.3598,-3.3598,-3.3698,-3.3699,-3.3701,-3.3663,-3.366,-3.3657,-3.3654,-3.3748,-3.3755,-3.3762,-3.3871,0,0,-3.3783,-3.3786,0,0,0,0,0,0,0,0,-3.3476,-3.3489,-3.3597,-3.3598,-3.3599,-3.3665,-3.3658,-3.3758,-3.3664,-3.3639,-3.3656,-3.3652,-3.3725,-3.3734,-3.3759,-3.3876,-3.388,-3.3783,-3.3788,-3.3791,-3.3792,0,0,0,0,0,0,0,-3.347,-3.3485,-3.364,-3.3599,-3.36,-3.359,-3.36,-3.3677,-3.3699,-3.364,-3.3638,-3.365,-3.3725,-3.3752,-3.3761,-3.3881,-3.3783,-3.3789,-3.3794,-3.3796,-3.4093,-3.4097,0,0,0,0,0,0,-3.3463,-3.348,-3.3637,-3.3643,-3.3528,-3.3597,-3.3608,-3.3647,-3.3698,-3.3703,-3.3653,-3.3648,-3.3742,-3.3753,-3.3764,-3.3896,-3.379,-3.3797,-3.3801,-3.4089,-3.4094,-3.4098,0,0,0,0,0,0,-3.3459,-3.3478,-3.3634,-3.3561,-3.358,-3.3604,-3.3649,-3.3651,-3.3678,-3.3708,-3.3711,-3.3677,-3.374,-3.3754,-3.3845,-3.3899,-3.38,-3.3806,-3.4085,-3.4091,-3.4096,-3.4161,0,0,0,0,0,0,-3.3453,-3.3476,-3.3518,-3.3562,-3.3584,-3.3714,-3.3652,-3.3655,-3.369,-3.3685,-3.3731,-3.3735,-3.3738,-3.3835,-3.3852,-3.3907,-3.3812,-3.408,-3.4088,-3.4094,-3.4154,-3.4168,-3.418,0,0,0,0,0,-3.3445,-3.3532,-3.3521,-3.354,-3.3637,-3.3717,-3.3729,-3.3731,-3.3695,-3.3737,-3.3756,-3.3734,-3.389,-3.3845,-3.3863,-3.3921,-3.4077,-3.4085,-3.4094,-3.4148,-3.4165,-3.4179,0,0,0,0,0,0,-3.3493,-3.3538,-3.3525,-3.3629,-3.367,-3.371,-3.3764,-3.3749,-3.38,-3.3793,-3.3793,-3.3804,-3.3897,-3.3918,-3.3866,-3.403,-3.3978,-3.399,-3.4013,-3.4029,-3.4042,-3.4035,-3.3818,0,0,0,0,0,-3.3516,-3.3577,-3.3613,-3.3701,-3.3722,-3.374,-3.3774,-3.3773,-3.3814,-3.383,-3.3856,-3.3897,-3.3955,-3.3993,-3.4048,-3.4157,-3.4166,-3.4206,-3.4219,-3.4229,-3.424,-3.4299,-3.4317,-3.4125,-3.4125,-3.4125,0,0,-3.3563,-3.3595,-3.3634,-3.3711,-3.3742,-3.3805,-3.3754,-3.3823,-3.3869,-3.3841,-3.3928,-3.3949,-3.3994,-3.4094,-3.4139,-3.4114,-3.4295,-3.424,-3.4248,-3.4253,-3.431,-3.4328,-3.4344,-3.4131,-3.413,-3.4129,0,0,-3.3682,-3.3712,-3.3789,-3.3822,-3.387,-3.3881,-3.39,-3.3943,-3.3956,-3.4044,-3.4024,-3.4079,-3.4179,-3.4213,-3.4243,-3.4376,-3.4357,-3.4393,-3.4461,-3.4519,-3.4534,-3.4547,-3.4595,-3.4612,-3.4404,-3.4404,-3.4404,0,-3.3734,-3.3829,-3.3831,-3.3902,-3.3936,-3.3914,-3.3993,-3.4024,-3.4087,-3.4111,-3.4083,-3.4209,-3.4237,-3.4345,-3.4378,-3.4403,-3.4424,-3.4388,-3.4532,-3.4545,-3.4557,-3.4603,-3.4621,-3.4408,-3.4408,-3.4407,-3.4407,0,-3.3891,-3.3958,-3.4014,-3.4077,-3.4118,-3.4192,-3.4205,-3.4246,-3.4242,-3.4256,-3.4346,-3.438,-3.4442,-3.4468,-3.4463,-3.4576,-3.4558,-3.4531,-3.4478,-3.458,-3.4622,-3.464,-3.4414,-3.4413,-3.4412,-3.4411,0,0,-3.4042,-3.4106,-3.4126,-3.4155,-3.4207,-3.4258,-3.4331,-3.4392,-3.4428,-3.4473,-3.4534,-3.462,-3.4595,-3.4629,-3.4628,-3.4679,-3.4783,-3.4645,-3.4646,-3.467,-3.4909,-3.4929,-3.4949,-3.4771,-3.4774,-3.4777,-3.4905,0,-3.4164,-3.4294,-3.4298,-3.4416,-3.4477,-3.4457,-3.4521,-3.456,-3.4576,-3.4629,-3.4646,-3.4708,-3.467,-3.469,-3.474,-3.476,-3.483,-3.475,-3.4827,-3.483,-3.4817,-3.4971,-3.4993,-3.5112,-3.4921,-3.4924,-3.4926,0,-3.4324,-3.4375,-3.45,-3.4544,-3.4569,-3.4627,-3.4684,-3.4736,-3.4779,-3.4787,-3.4826,-3.4818,-3.4893,-3.4839,-3.4942,-3.4887,-3.4919,-3.4934,-3.4938,-3.4945,-3.4884,-3.4982,-3.515,-3.5168,-3.4952,-3.495,-3.4948,0,-3.4422,-3.4521,-3.4609,-3.4634,-3.4687,-3.4728,-3.4752,-3.4792,-3.4829,-3.4879,-3.4903,-3.4961,-3.4993,-3.5037,-3.5045,-3.5005,-3.5148,-3.5095,-3.5157,-3.5157,-3.5187,-3.5185,-3.5363,-3.5208,-3.5208,-3.5208,-3.5207,0,-3.4558,-3.4635,-3.4653,-3.4707,-3.4793,-3.4797,-3.4881,-3.4902,-3.4939,-3.4996,-3.4982,-3.5036,-3.5043,-3.5099,-3.5106,-3.519,-3.5204,-3.5213,-3.5213,-3.5214,-3.5213,-3.5234,-3.5226,-3.5213,-3.5211,-3.5211,-3.521,0,-3.4681,-3.4697,-3.4791,-3.4834,-3.4847,-3.4908,-3.4945,-3.4996,-3.5011,-3.5084,-3.5101,-3.5124,-3.5189,-3.5201,-3.5278,-3.5282,-3.5383,-3.5375,-3.5368,-3.5368,-3.5429,-3.5423,-3.5626,-3.5653,-3.5481,-3.5483,-3.5484,0,-3.4767,-3.4826,-3.4876,-3.4914,-3.494,-3.5001,-3.5039,-3.5046,-3.5086,-3.5141,-3.5185,-3.5249,-3.5301,-3.5406,-3.5429,-3.5487,-3.5481,-3.5548,-3.549,-3.5489,-3.5482,-3.5479,-3.5485,-3.5559,-3.5561,-3.5563,-3.5564,0,-3.4918,-3.4923,-3.4978,-3.5038,-3.5084,-3.513,-3.5174,-3.5206,-3.5218,-3.5264,-3.5331,-3.5371,-3.545,-3.5514,-3.5573,-3.5597,-3.5583,-3.5582,-3.56,-3.5601,-3.5595,-3.5599,-3.5399,-3.5577,-3.5576,-3.5575,-3.5574,-3.5574,-3.5025,-3.5076,-3.512,-3.5183,-3.5217,-3.5259,-3.531,-3.5331,-3.5387,-3.5453,-3.5453,-3.5526,-3.5569,-3.5647,-3.5675,-3.5732,-3.5711,-3.5736,-3.5742,-3.5748,-3.5754,-3.5586,-3.5743,-3.5742,-3.5742,-3.5742,-3.5741,0,-3.5175,-3.5202,-3.526,-3.5323,-3.5372,-3.5356,-3.5404,-3.5447,-3.5512,-3.5553,-3.5604,-3.5682,-3.5743,-3.5772,-3.5833,-3.5873,-3.5869,-3.5889,-3.5886,-3.5892,-3.577,-3.5749,-3.5892,-3.5892,-3.5892,-3.5892,-3.5892,-3.5892,-3.5259,-3.5345,-3.5356,-3.546,-3.5486,-3.5559,-3.5588,-3.5626,-3.566,-3.5747,-3.5799,-3.5817,-3.5854,-3.5917,-3.5973,-3.598,-3.6003,-3.6027,-3.6031,-3.5916,-3.5901,-3.5886,-3.5866,-3.6032,-3.6032,-3.6148,-3.6149,-3.615]}]]